User: anonymous   Login
Location: Igon
(43.1667°N, 0.2333°W)
Time: 04:43:06
(UTC+00:00)
Language:

FENGYUN 1C DEB - Orbit

View from above orbital plane
View from above orbital plane
View from above satellite
View from above satellite

Ground track
Ground track

The orbit data is extracted from the following two-line orbital elements,

1 30919U 99025AZH 21164.98578596  .00001233  00000-0  47673-3 0  9997
2 30919  98.7800 261.7783 0052406 224.4767 135.2202 14.31200171740083
Epoch (UTC): 13 June 2021 23:39:31
Eccentricity: 0.0052406
inclination: 98.7800°
perigee height: 750 km
apogee height: 825 km
right ascension of ascending node: 261.7783°
argument of perigee: 224.4767°
revolutions per day: 14.31200171
mean anomaly at epoch: 135.2202°
orbit number at epoch: 74008

The dashed part of the orbit path shows where the satellite is in the earth's shadow,  

DLR